DELTA 1 R/B, 4377

Orbit data source: Space-Track

DELTA 1 R/B, 4377 is space debris in HEO originally from a launch on Thu, 23 Apr 1970 UTC launched from the Air Force Eastern Test Range (AFETR). Debris objects in space refer to the collection of defunct objects orbiting the Earth. Examples of debris include non-operational satellites, rocket bodies, and fragments generated from explosions, collisions, or faulty payload assembly.

Loading next visibility...
Identifier
4377, 1970-032B
Orbit
HEO
Country
Flag of USUS
Related business
Manufacturer
Thiokol/TE
Mission
Spacecraft
Bus & Motor
STAR 37, Unknown motor
Mass
65 kg wet, 65 kg dry
Launch date (UTC)
1970-04-23 (56 years ago)
Launch vehicle
Unknown
Launch site
Air Force Eastern Test Range (AFETR)
Object type
Payload
Rocket body
Debris
Shape & HBR
Unknown
Radar Cross Section
Large (>1 m²)

Expand to show TLE details & history
Last TLE update: 10 hours ago

TLE from 10 hours ago
0 DELTA 1 R/B
1 04377U 70032B   26126.08683382  .00007353  00000-0  98677-3 0  9996
2 04377  26.7363  71.5692 5685149 245.3541  46.6815  4.54016443631722
Epoch: 2026-05-06T02:05Z
TLE epoch observation values (Epoch: 2026-05-06T02:05:02.442Z)
Latitude
0.00003°
Longitude
176.32462°
Altitude
7,298.36 km
Speed
5.694 km/s
True Right ascension
04h 46m 08s
True Declination
0° 00' 00"
Sunlit
Object was in daylight at epoch
Visualization orbit readout
Latitude
Unknown
Longitude
Unknown
Altitude
Unknown
Speed
Unknown
Apparent Right ascension
Unknown
Apparent Declination
Unknown
Sunlit
N/A
Visualization observer readout
Local Sidereal Time
19:43:18
Azimuth
Unknown
Elevation
Unknown
Doppler factor
Unknown
Orbital elements
Apogee altitude
17,791.892 km
Perigee altitude
270.832 km
Semi-major axis
15,409.499 km
Eccentricity
0.56851
Inclination
26.7363°
RAAN
71.5692°
Arg. of periapsis
245.3541°
True anomaly
114.70912°
Mean anomaly
46.6815°
Eccentric anomaly
78.61393°
Mean motion
1.13465 °/min
Orbital period
317.28 mins
BSTAR
0.00098677
Loading maneuver chart data...
Computing Atmospheric mass density...
Loading historical data...
Loading historical data...
Loading historical data...
Loading historical data...
Loading historical data...
Loading historical data...
Loading historical data...
Other satellites on launch #32 in the year 1970 (1970-04-23 UTC)

Documentation

Showing up to 5 results
|